Voltar ao catálogo

COSMOS 2548

AtivoNavegaçãoPO
NORAD 47230·PAYLOAD·🇷🇺 Russia

Lançado Dec 3, 2020 de Plesetsk Cosmodrome

Loading…

Próximas Passagens (próximas 24 horas)

TLE

AtualizadoSource: Space-Track

Época: Sep 14, 2026, 23:59 UTC

1 47230U 20091D   26257.99947043  .00000048  00000-0  27819-3 0  9997
2 47230  82.4947 245.7747 0015266   2.7952 357.3210 12.42929581262210

Acompanhe COSMOS 2548 em tempo real com AllMySat

Download on the App Store